Location: Peebles
(55.6412°N, 3.1714°W)
Time: 00:27:25
(UTC+00:00)

CZ-2C R/B - Visible Passes

Search period start: 28 January 2022 00:00
Search period end: 07 February 2022 00:00
Orbit: 784 x 870 km, 98.2° (Epoch: 27 January)

Date Brightness Start Highest point End Pass type
(mag) Time Alt. Az. Time Alt. Az. Time Alt. Az.
28 Jan 4.6 03:27:01 10° ESE 03:36:30 - N 03:30:22 25° ENE visible
28 Jan 2.4 05:05:54 10° S 05:11:09 75° WSW 05:11:55 64° NW visible
28 Jan 4.1 06:49:23 10° WSW 06:52:27 15° W 06:53:27 15° WNW visible
28 Jan 3.6 17:16:30 10° NNE 17:21:20 30° E 17:26:11 10° SSE visible
28 Jan 3.2 18:56:33 10° N 19:02:00 62° WNW 19:07:31 10° SSW visible
28 Jan 5.3 20:37:55 10° N 20:41:22 17° NW 20:44:51 10° W visible
29 Jan 4.9 03:09:04 10° E 03:16:46 10° N 03:16:49 10° N visible
29 Jan 2.6 04:47:14 10° SSE 04:52:30 83° ENE 04:53:42 55° N visible
29 Jan 3.8 06:29:36 10° SW 06:33:30 21° W 06:35:16 18° WNW visible
29 Jan 2.8 18:37:50 10° NNE 18:43:24 81° WNW 18:49:01 10° SSW visible
29 Jan 5.0 20:18:57 10° N 20:23:00 21° NW 20:27:05 10° W visible
30 Jan 5.1 02:51:16 10° E 02:56:35 14° NNE 02:57:52 10° N visible
30 Jan 3.0 04:28:41 10° SSE 04:33:53 63° ENE 04:39:15 10° NNW visible
30 Jan 3.4 06:10:08 10° SSW 06:14:37 28° W 06:17:42 17° NW visible
30 Jan 2.7 18:19:11 10° NNE 18:24:46 78° ESE 18:30:23 10° SSW visible
30 Jan 4.7 20:00:04 10° N 20:04:36 27° NW 20:09:10 10° WSW visible
31 Jan 5.4 02:33:42 10° ENE 02:36:13 14° NE 02:38:46 10° NNE visible
31 Jan 3.5 04:10:16 10° SE 04:15:19 48° ENE 04:20:32 10° N visible
31 Jan 3.1 05:50:55 10° SSW 05:55:47 37° W 06:00:48 10° NNW visible
31 Jan 2.8 18:00:34 10° NNE 18:06:05 59° E 18:11:37 10° S visible
31 Jan 4.3 19:41:14 10° N 19:46:09 34° WNW 19:51:07 10° WSW visible
31 Jan 5.7 21:24:19 10° NNW 21:24:57 10° NW 21:25:35 10° NW visible
01 Feb 5.6 02:16:35 10° NE 02:17:56 11° NE 02:19:17 10° NNE visible
01 Feb 3.9 03:51:58 10° SE 03:56:49 37° ENE 04:01:46 10° N visible
01 Feb 2.7 05:31:53 10° S 05:37:00 49° W 05:42:18 10° NNW visible
01 Feb 3.1 17:42:00 10° NNE 17:47:21 45° E 17:52:43 10° S visible
01 Feb 3.9 19:22:27 10° N 19:27:40 43° WNW 19:32:55 10° SW visible
01 Feb 5.5 21:04:23 10° NNW 21:06:41 13° NW 21:09:00 10° WNW visible
02 Feb 4.4 03:33:49 10° ESE 03:38:20 29° NE 03:42:58 10° N visible
02 Feb 2.5 05:13:00 10° S 05:18:17 66° WSW 05:23:43 10° NNW visible
02 Feb 4.2 06:57:06 10° WSW 06:59:42 14° W 07:02:20 10° NW visible
02 Feb 3.4 17:23:31 10° NNE 17:28:34 34° E 17:33:38 10° SSE visible
02 Feb 3.4 19:03:41 10° N 19:09:08 55° WNW 19:14:36 10° SW visible
02 Feb 5.4 20:45:11 10° N 20:48:22 16° NW 20:51:35 10° W visible
03 Feb 4.7 03:15:47 10° ESE 03:19:54 23° NE 03:24:07 10° N visible
03 Feb 2.5 04:54:17 10° SSE 04:59:36 87° WSW 05:05:06 10° NNW visible
03 Feb 3.9 06:37:05 10° SW 06:40:44 18° W 06:44:28 10° NW visible
03 Feb 3.0 18:44:58 10° NNE 18:50:33 72° WNW 18:56:09 10° SSW visible
03 Feb 5.1 20:26:10 10° N 20:30:02 20° NW 20:33:54 10° W visible
04 Feb 5.0 02:57:54 10° E 03:01:31 19° NE 03:05:13 10° N visible
04 Feb 2.8 04:35:40 10° SSE 04:40:58 72° ENE 04:46:27 10° NNW visible
04 Feb 3.6 06:17:31 10° SW 06:21:50 25° W 06:26:15 10° NW visible
04 Feb 2.7 18:26:18 10° NNE 18:31:56 87° ESE 18:37:34 10° SSW visible
04 Feb 4.9 20:07:16 10° N 20:11:39 24° NW 20:16:03 10° WSW visible
05 Feb 5.3 02:40:12 10° ENE 02:43:11 15° NE 02:46:12 10° N visible
05 Feb 3.3 04:17:12 10° SE 04:22:23 54° ENE 04:27:44 10° N visible
05 Feb 3.3 05:58:12 10° SSW 06:02:58 33° W 06:07:53 10° NNW visible
05 Feb 2.7 18:07:40 10° NNE 18:13:16 67° ESE 18:18:52 10° S visible
05 Feb 4.5 19:48:25 10° N 19:53:13 30° WNW 19:58:02 10° WSW visible
06 Feb 5.5 02:22:48 10° ENE 02:24:53 12° NE 02:26:59 10° NNE visible
06 Feb 3.8 03:58:51 10° SE 04:03:51 42° ENE 04:09:00 10° N visible
06 Feb 2.9 05:39:05 10° S 05:44:10 44° W 05:49:25 10° NNW visible
06 Feb 3.0 17:49:05 10° NNE 17:54:33 51° E 18:00:01 10° S visible
06 Feb 4.1 19:29:36 10° N 19:34:45 38° WNW 19:39:54 10° SW visible
06 Feb 5.6 21:11:49 10° NNW 21:13:40 12° NW 21:15:31 10° WNW visible
